Back to catalog

STARLINK-38261

AliveCommunicationsSSO
NORAD 100309·PAYLOAD·🇺🇸 United States

Launched Aug 12, 2026 from Vandenberg Space Force Base

Loading…

Next Passes (next 24 hours)

TLE

FreshSource: Space-Track

Epoch: Sep 14, 2026, 14:19 UTC

1 A0309U 26184J   26257.59663931  .00014463  00000-0  44985-3 0  9998
2 A0309  97.2839 122.7677 0001230  77.8288 282.3092 15.33416465  6459

Track STARLINK-38261 in real time with AllMySat

Download on the App Store